Location: Borz?cin
(51.1714°N, 19.6030°E)
Time: 18:11:05
(UTC+00:00)

Cosmos 1908 - Pass Details

Date: 19 May 2025
Orbit: 404 x 413 km, 82.5° (Epoch: 20 June)

Event Time Altitude Azimuth Distance (km) Brightness Sun altitude
Rises 21:32:25 0° 353° (N) 2,383 8.2 -17.4°
Reaches altitude 10° 21:34:31 10° 358° (N) 1,510 6.8 -17.5°
Maximum altitude 21:37:44 52° 77° (ENE) 526 3.1 -17.6°
Enters shadow 21:38:18 45° 115° (ESE) 580 3.1 -17.7°
